This is the latest recevied weather packets stored in our database for station/object KI2K. If no packets are shown the sender has not sent any weather packets the latest 10 day(s).
| Time | Temp. | Humidity | Pressure | Rain* | Wind** | Luminosity | Snow |
|---|---|---|---|---|---|---|---|
| 1777995112 | 14.44° C | 99% | 1008.1 hPa | 0 mm | - | 58 W/m² | - |
| 1777994809 | 14.44° C | 98% | 1008.3 hPa | 1.78 mm | - | 74 W/m² | - |
| 1777994505 | 14.44° C | 98% | 1008.1 hPa | 4.83 mm | - | 77 W/m² | - |
| 1777994200 | 14.44° C | 98% | 1008 hPa | 3.05 mm | - | 77 W/m² | - |
| 1777993898 | 14.44° C | 98% | 1007.8 hPa | 0 mm | - | 45 W/m² | - |
| 1777993594 | 13.89° C | 98% | 1007.4 hPa | 0 mm | - | 46 W/m² | - |
| 1777993291 | 13.89° C | 98% | 1007.6 hPa | 0 mm | - | 47 W/m² | - |
| 1777992986 | 13.89° C | 98% | 1007.6 hPa | 0 mm | - | 46 W/m² | - |
| 1777992685 | 14.44° C | 98% | 1007.8 hPa | 0 mm | - | 46 W/m² | - |
| 1777992383 | 13.89° C | 98% | 1007.6 hPa | 0 mm | - | 38 W/m² | - |
| 1777992080 | 13.89° C | 98% | 1007.9 hPa | 0 mm | - | 52 W/m² | - |
| 1777991777 | 13.89° C | 98% | 1008.1 hPa | 0 mm | - | 25 W/m² | - |
| 1777991474 | 14.44° C | 98% | 1008 hPa | 0 mm | - | 27 W/m² | - |
| 1777991171 | 14.44° C | 98% | 1008 hPa | 0 mm | - | 48 W/m² | - |
| 1777990869 | 14.44° C | 99% | 1007.6 hPa | 0 mm | - | 78 W/m² | - |
| 1777990566 | 13.89° C | 99% | 1007.7 hPa | 0 mm | - | 60 W/m² | - |
| 1777989960 | 13.89° C | 99% | 1007.6 hPa | 0 mm | - | 48 W/m² | - |
| 1777989656 | 13.89° C | 99% | 1007.4 hPa | 0 mm | - | 53 W/m² | - |
| 1777989352 | 13.89° C | 99% | 1007.5 hPa | 0 mm | - | 49 W/m² | - |
| 1777989049 | 13.89° C | 99% | 1007.6 hPa | 0 mm | - | 52 W/m² | - |
| 1777988744 | 13.89° C | 99% | 1007.6 hPa | 0 mm | - | 72 W/m² | - |
| 1777988443 | 13.89° C | 99% | 1007.6 hPa | 0 mm | - | 54 W/m² | - |
| 1777988139 | 13.89° C | 99% | 1007.3 hPa | 0 mm | - | 87 W/m² | - |
| 1777987835 | 13.89° C | 99% | 1007.5 hPa | 0 mm | - | 63 W/m² | - |
| 1777987532 | 13.89° C | 99% | 1007.5 hPa | 0 mm | - | 32 W/m² | - |
* Rain latest hour (hover to see other rain measurements)
** Current wind speed in m/s (hover to see current wind gust speed)